STARLINK-30253 (57525 NORAD) Tracking and Keplerian Element Data

This shows tracking and keplerian element data for the satellite.

Feedback or suggestion? Click here.




ElementValue
Catalog57525
NameSTARLINK-30253
Epoch Orbit396
Epoch Day239.16667824
Epoch Year2023
RAAN359.5955
Inclination42.9995
Eccentricity8.8E-05
Argument of Perigee265.7598
Mean Anonmoly91.4167
Mean Motion15.54759801
Decay Rate-0.01621859
L11 57525U 23115E 23239.16667824 -.01621859 00000+0 -26429-1 0 9992
L22 57525 42.9995 359.5955 0000880 265.7598 91.4167 15.54759801 3964



Live tracking and technical data element details for STARLINK-30253 (NORAD 57525). STARLINK-30253 can be tracked NOW for your location showing map with azimuth and elevation plus other details from your city location.







IsCatalogInMostPopularTable: catalog: 57525, numindb: 5
Update: records affected: 1



GetName: 57525 STARLINK-30253

Hit Count: updated at: Tue, 26 Sep 2023 11:58:35 GMT